{"data":{"norad_id":40271,"epoch":"2026-05-25T03:26:38.736096Z","epoch_age_seconds":65674,"freshness":"FRESH","line1":"1 40271U 14062A   26145.14350389 -.00000153  00000+0  00000+0 0  9996","line2":"2 40271   0.0258  42.8467 0001033 340.4720 176.0285  1.00272991  6566","mean_motion":1.00272991,"eccentricity":0.0001033,"inclination_deg":0.0258,"raan_deg":42.8467,"arg_perigee_deg":340.472,"mean_anomaly_deg":176.0285,"bstar":0,"rev_number":656,"period_min":1436.0796318522,"perigee_km":35781.901297112,"apogee_km":35790.612460888,"semimajor_km":42164.393879,"source":"CELESTRAK","updated_at":"2026-05-25T13:38:14.333088Z"}}